Voltar ao catálogo

STARLINK-1954

AtivoComunicaçõesVLEO
NORAD 47555·PAYLOAD·🇺🇸 United States

Lançado Feb 4, 2021 de Cape Canaveral Space Force Station

Loading…

Próximas Passagens (próximas 24 horas)

TLE

AtualizadoSource: CelesTrak SupGP

Época: Sep 14, 2026, 21:11 UTC

1 47555C 21009H   26257.88312500  .00041916  00000+0  73193-3 0  2570
2 47555  53.0463 195.0888 0004090  85.6900 314.7728 15.50046171    12

Acompanhe STARLINK-1954 em tempo real com AllMySat

Download on the App Store